Regional Weather Roundup
Issued by NWS Newport/Morehead, NC

Current Version | Previous Version | Graphics & Text | Print | Product List | Glossary On
Versions: 1 2 3 4 5 6 7 8 9 10 11 12 13 14 15 16 17 18 19 20 21 22 23 24 25 26 27 28 29 30 31 32 33 34 35 36 37 38 39 40 41 42 43 44 45 46 47 48 49 50
000 ASUS42 KMHX 230814 RWRMHX WEATHER ROUNDUP FOR EASTERN NORTH CAROLINA NATIONAL WEATHER SERVICE NEWPORT/MOREHEAD CITY NC 300 AM EST TUE JAN 23 2018 NOTE: "FAIR" INDICATES FEW OR NO CLOUDS BELOW 12,000 FEET WITH NO SIGNIFICANT WEATHER AND/OR OBSTRUCTIONS TO VISIBILITY NCZ015>017-031-032-045>047-102-103-230900- NORTH COAST CITY SKY/WX TMP DP RH WIND PRES REMARKS EDENTON FAIR 57 56 94 S7 29.95F ELIZABETH CITY FAIR 58 58 100 S10 29.95F KITTY HAWK FAIR N/A N/A N/A CALM 29.97F MANTEO FAIR 54 53 99 S14 29.98F $$ NCZ045>047-081-094-103-104-230900- CENTRAL COAST CITY SKY/WX TMP DP RH WIND PRES REMARKS FRISCO NOT AVBL $$ NCZ095-097-098-100-101-230900- SOUTHERN COAST CITY SKY/WX TMP DP RH WIND PRES REMARKS BEAUFORT FAIR 60 57 89 S12 29.98F CEDAR ISLAND NOT AVBL JACKSONVILLE MOCLDY 64 61 90 S10 29.95F PINEY ISLAND NOT AVBL WILMINGTON FAIR 64 60 87 S17G23 29.95F $$ NCZ011>013-027>030-043-044-078>080-089-090>093-098-230900- COASTAL PLAIN CITY SKY/WX TMP DP RH WIND PRES REMARKS AHOSKIE FAIR 58 57 98 S8 29.91F CLINTON FAIR 62 61 94 S10 29.92F ELIZABETHTOWN NOT AVBL GOLDSBORO CLOUDY 63 58 84 S10 29.90F GREENVILLE FAIR 63 59 88 S12G18 29.94F HAVELOCK NOT AVBL KENANSVILLE FAIR 61 57 88 S3 29.93S KINSTON FAIR 61 58 91 S9 29.93F NEW BERN FAIR 62 58 86 S12 29.96F RICHLANDS FAIR 62 59 90 S9 29.95F ROCKY MOUNT FAIR 61 58 90 S8 29.90F WASHINGTON FAIR 60 57 92 S6 29.95F WHITEVILLE FAIR 64 60 86 S9 29.93F $$ AMZ130-135-150-152-154-156-158-170-250-252-270-ANZ085-086-088-633-658-670-230900- MARINE OBSERVATIONS STATION/POSITION TIME TEMP WIND PRES WAVE SWELL AIR SEA DIR/SP/G HT/PER HT/PER (UTC) (F) (DEG/KT/KT) (MB) (FT/S) (FT/S) CHESAPEAKE LIGHT NOT AVBL 64 E VA BEACH 0750 62 59 190/ 16/ 17 1015.7 2/ 3 DUCK 0736 60 41 180/ 15/ 17 1014.3 2 E DUCK 0800 42 N/A 1/10 OREGON INLET 0736 52 44 170/ 11/ 13 1015.6 13E OREGON INLT 0748 42 N/A 3/ 5 2/ 5 HATTERAS CG 0736 64 53 190/ 9/ 14 1015.7 DIAMOND BUOY 0750 70 69 180/ 25/ 31 1016.4 6/ 6 CAPE LOOKOUT 0800 180/ 12/ 13 1015.7 BEAUFORT LAB 0736 55 48 170/ 7/ 9 1015.4 30 SE NEW RVR IN 0708 66 59 190/ 14/ 17 1015.6 30 SE NEW RVR IN 0800 59 N/A 6/ 6 27 SE WRIGHTSVLE 0708 66 60 180/ 16/ 21 1015.5 5 SE WRIGHTSVLE 0708 52 47 180/ 8/ 12 1015.0 225 S CAPE HAT 0750 70 70 160/ 14/ 17 1019.3 4/ 5 2/ 9 41 SE CHARLESTON 0750 71 70 180/ 17/ 21 1014.5 5/ 6 $$

USA.gov is the U.S. government's official web portal to all federal, state and local government web resources and services.